DW4360 Weather Reports


time (UTC)temp
C
wind
direction
speed
KPH
gust
KPH
rain 1hr
cm
rain 24hr
cm
rain mn
cm
humidity
%
barometer
mb
20260503195140 30 324 0.0 0.0 0.00 0.00 0.00 42 1008.8
20260503193138 28 318 6.4 0.0 0.00 0.00 0.00 43 1009.0
20260503192137 28 327 11.3 0.0 0.00 0.00 0.00 43 1009.2
20260503191136 27 319 6.4 0.0 0.00 0.00 0.00 45 1009.3
20260503190135 27 320 0.0 0.0 0.00 0.00 0.00 47 1009.5
20260503184133 27 317 0.0 0.0 0.00 0.00 0.00 48 1009.7
20260503183132 26 331 0.0 0.0 0.00 0.00 0.00 49 1009.9
20260503182131 26 315 0.0 0.0 0.00 0.00 0.00 51 1010.0
20260503180129 24 316 0.0 0.0 0.00 0.00 0.00 54 1010.2
20260503175128 23 331 1.6 0.0 0.00 0.00 0.00 56 1010.3
20260503174128 22 317 0.0 0.0 0.00 0.00 0.00 61 1010.4
20260503173126 21 101 0.0 0.0 0.00 0.00 0.00 65 1010.6
20260503172125 20 104 0.0 0.0 0.00 0.00 0.00 72 1010.6
20260503170123 18 324 0.0 0.0 0.00 0.00 0.00 75 1010.6
20260503160116 15 325 0.0 0.0 0.00 0.00 0.00 86 1011.0
20260503150111 13 217 0.0 0.0 0.00 0.00 0.00 93 1011.2
20260503140105 12 218 0.0 0.0 0.00 0.00 0.00 93 1011.0
20260503131100 12 218 0.0 0.0 0.00 0.00 0.00 91 1010.7
20260503081029 14 217 0.0 0.0 0.00 0.00 0.00 87 1011.2
20260503072024 15 216 0.0 0.0 0.00 0.00 0.00 85 1011.3
20260503071023 15 216 0.0 0.0 0.00 0.00 0.00 84 1011.3
20260503055015 16 216 0.0 0.0 0.00 0.00 0.00 80 1011.3
20260503054014 16 216 0.0 0.0 0.00 0.00 0.00 79 1011.1
20260503053013 17 216 0.0 0.0 0.00 0.00 0.00 78 1011.0
20260503052012 17 216 0.0 0.0 0.00 0.00 0.00 79 1011.2
20260503051011 17 215 0.0 0.0 0.00 0.00 0.00 77 1011.1
20260503050010 17 215 0.0 0.0 0.00 0.00 0.00 77 1011.3
20260503045009 17 215 0.0 0.0 0.00 0.00 0.00 77 1011.6
20260503044008 17 215 0.0 0.0 0.00 0.00 0.00 76 1011.5
20260503043006 17 215 0.0 0.0 0.00 0.00 0.00 77 1011.4
20260503042005 17 215 0.0 0.0 0.00 0.00 0.00 78 1011.4
20260503041005 17 215 0.0 0.0 0.00 0.00 0.00 75 1011.2
20260503040004 18 215 0.0 0.0 0.00 0.00 0.00 74 1011.2
20260503035003 18 215 0.0 0.0 0.00 0.00 0.00 73 1011.2
20260503034001 18 215 0.0 0.0 0.00 0.00 0.00 72 1011.1
20260503033000 18 215 0.0 0.0 0.00 0.00 0.00 72 1011.1
20260503025957 19 215 0.0 0.0 0.00 0.00 0.00 70 1010.8
20260503024956 19 214 0.0 0.0 0.00 0.00 0.00 70 1010.9
20260503023955 20 249 0.0 0.0 0.00 0.00 0.00 68 1011.0
20260503022954 20 232 0.0 0.0 0.00 0.00 0.00 67 1011.0
20260503021954 21 259 9.7 0.0 0.00 0.00 0.00 65 1010.9
20260503020952 21 264 3.2 0.0 0.00 0.00 0.00 63 1010.9
20260503015952 21 221 4.8 0.0 0.00 0.00 0.00 61 1010.5
20260503014951 22 215 1.6 0.0 0.00 0.00 0.00 61 1010.1
20260503013949 22 232 0.0 0.0 0.00 0.00 0.00 58 1010.0
20260503012949 23 322 0.0 0.0 0.00 0.00 0.00 57 1010.0
20260503011947 23 322 0.0 0.0 0.00 0.00 0.00 56 1009.9
20260503010947 23 322 0.0 0.0 0.00 0.00 0.00 55 1009.8
20260503005945 23 322 0.0 0.0 0.00 0.00 0.00 54 1009.8
20260503004944 23 322 0.0 0.0 0.00 0.00 0.00 54 1009.9
20260503003943 24 322 0.0 0.0 0.00 0.00 0.00 53 1009.9
20260503002942 24 335 6.4 0.0 0.00 0.00 0.00 52 1009.9
20260503001941 25 319 1.6 0.0 0.00 0.00 0.00 52 1009.9
20260503000940 25 317 0.0 0.0 0.00 0.00 0.00 52 1010.0
20260502235939 24 321 0.0 0.0 0.00 0.00 0.00 54 1010.1
20260502233937 23 316 0.0 0.0 0.00 0.00 0.00 52 1010.3
20260502232936 23 5 0.0 0.0 0.00 0.00 0.00 55 1010.6
20260502231935 23 338 0.0 0.0 0.00 0.00 0.00 55 1010.6
20260502225940 22 323 0.0 0.0 0.00 0.00 0.00 56 1010.9
20260502224932 22 325 0.0 0.0 0.00 0.00 0.00 56 1011.0
20260502223931 22 327 0.0 0.0 0.00 0.00 0.00 57 1011.2
20260502222930 22 317 0.0 0.0 0.00 0.00 0.00 56 1011.3
20260502221929 22 317 0.0 0.0 0.00 0.00 0.00 57 1011.5
20260502215927 21 36 0.0 0.0 0.00 0.00 0.00 57 1012.0
20260502214926 22 338 6.4 0.0 0.00 0.00 0.00 56 1012.0
20260502213925 22 328 8.0 0.0 0.00 0.00 0.00 55 1012.1
20260502212924 22 324 8.0 0.0 0.00 0.00 0.00 57 1012.3
20260502205921 20 314 4.8 0.0 0.00 0.00 0.00 60 1012.7
20260502204920 20 227 0.0 0.0 0.00 0.00 0.00 62 1013.1
20260502203919 20 243 0.0 0.0 0.00 0.00 0.00 64 1013.3
20260502202918 19 321 4.8 0.0 0.00 0.00 0.00 64 1013.4
20260502201917 18 128 0.0 0.0 0.00 0.00 0.00 64 1013.5
20260502200916 18 140 0.0 0.0 0.00 0.00 0.00 64 1013.6